Location: Brahman Valley
(40.6513°N, 111.8855°W)
Time: 09:04:39
(UTC+00:00)

Tiros 1 despin weight - Pass Details

Date: 16 May 2021
Orbit: 594 x 641 km, 48.2° (Epoch: 22 June)

Event Time Altitude Azimuth Distance (km) Brightness Sun altitude
Rises 05:21:16 0° 286° (WNW) 2,934 ? -23.7°
Reaches altitude 10° 05:23:48 10° 296° (WNW) 2,029 ? -24.0°
Maximum altitude 05:28:01 32° 0° (N) 1,103 ? -24.4°
Enters shadow 05:32:03 11° 63° (ENE) 1,974 ? -24.8°
Drops below altitude 10° 05:32:13 10° 64° (ENE) 2,032 - -24.8°
Sets 05:34:46 0° 75° (ENE) 2,938 - -25.0°
